Location: Alvis C Story Elementary School
(33.0968°N, 96.6364°W)
Time: 19:12:23
(UTC+00:00)

Cosmos 1602 - Pass Details

Date: 04 July 2022
Orbit: 508 x 526 km, 82.5° (Epoch: 17 August)

Event Time Altitude Azimuth Distance (km) Brightness Sun altitude
Exits shadow 08:24:54 23° 78° (ENE) 1,102 5.7 -27.8°
Drops below altitude 10° 08:27:30 10° 35° (NE) 1,729 7.3 -27.5°
Sets 08:29:54 0° 22° (NNE) 2,620 8.5 -27.3°
